When you browse on this site, cookies collect data to enhance your experience and personalize the content and advertising you see.
Visit our Privacy Policy to learn more. By continuing to use the site, you agree to this use of cookies and data.

Hourly Weather Sydney

Today, 4 July, Saturday

Time Temperature Precipitation Wind Pressure Humidity
00:00 +9°C° 0 mm 3 mps 762 mmHg 65%
01:00 +8°C° 0 mm 2 mps 762 mmHg 66%
02:00 +8°C° 0.1 mm 2 mps 762 mmHg 69%
03:00 +9°C° 0.1 mm 3 mps 762 mmHg 71%
04:00 +9°C° 0 mm 3 mps 762 mmHg 76%
05:00 +8°C° 0.2 mm 3 mps 762 mmHg 77%
06:00 +7°C° 0.2 mm 4 mps 762 mmHg 78%
07:00 +7°C° 0.2 mm 4 mps 762 mmHg 79%
08:00 +8°C° 0.2 mm 5 mps 763 mmHg 73%
09:00 +9°C° 0.2 mm 6 mps 763 mmHg 67%
10:00 +11°C° 0 mm 6 mps 764 mmHg 57%
11:00 +13°C° 0 mm 6 mps 763 mmHg 49%
12:00 +14°C° 0 mm 6 mps 763 mmHg 41%
13:00 +15°C° 0 mm 6 mps 763 mmHg 33%
14:00 +15°C° 0 mm 5 mps 763 mmHg 34%
15:00 +15°C° 0 mm 5 mps 763 mmHg 35%
16:00 +15°C° 0 mm 4 mps 763 mmHg 35%
17:00 +14°C° 0 mm 5 mps 763 mmHg 41%
18:00 +11°C° 0 mm 6 mps 764 mmHg 47%
19:00 +10°C° 0 mm 6 mps 764 mmHg 52%
20:00 +9°C° 0 mm 7 mps 764 mmHg 55%
21:00 +9°C° 0 mm 7 mps 764 mmHg 57%
22:00 +8°C° 0 mm 7 mps 764 mmHg 60%
23:00 +8°C° 0 mm 7 mps 764 mmHg 62%

Tomorrow, 5 July, Sunday

Time Temperature Precipitation Wind Pressure Humidity
00:00 +8°C° 0 mm 7 mps 764 mmHg 64%
01:00 +8°C° 0 mm 7 mps 764 mmHg 66%
02:00 +8°C° 0 mm 6 mps 764 mmHg 68%
03:00 +8°C° 0 mm 6 mps 764 mmHg 69%
04:00 +8°C° 0 mm 6 mps 764 mmHg 71%
05:00 +8°C° 0 mm 6 mps 764 mmHg 72%
06:00 +8°C° 0 mm 6 mps 765 mmHg 72%
07:00 +8°C° 0 mm 6 mps 765 mmHg 73%
08:00 +9°C° 0 mm 6 mps 765 mmHg 67%
09:00 +11°C° 0 mm 6 mps 765 mmHg 60%
10:00 +14°C° 0 mm 5 mps 765 mmHg 53%
11:00 +15°C° 0 mm 5 mps 765 mmHg 49%
12:00 +16°C° 0 mm 5 mps 765 mmHg 45%
13:00 +18°C° 0 mm 4 mps 765 mmHg 40%
14:00 +18°C° 0 mm 4 mps 765 mmHg 42%
15:00 +18°C° 0 mm 3 mps 765 mmHg 44%
16:00 +18°C° 0 mm 3 mps 765 mmHg 46%
17:00 +16°C° 0 mm 3 mps 765 mmHg 51%
18:00 +15°C° 0 mm 2 mps 766 mmHg 56%
19:00 +14°C° 0 mm 2 mps 766 mmHg 62%
20:00 +12°C° 0 mm 3 mps 767 mmHg 63%
21:00 +11°C° 0 mm 3 mps 767 mmHg 65%
22:00 +11°C° 0 mm 3 mps 768 mmHg 67%
23:00 +10°C° 0.1 mm 3 mps 768 mmHg 68%

Day after tomorrow, 6 July, Monday

Time Temperature Precipitation Wind Pressure Humidity
00:00 +10°C° 0.1 mm 3 mps 768 mmHg 69%
01:00 +8°C° 0.1 mm 4 mps 768 mmHg 71%
02:00 +8°C° 0 mm 4 mps 768 mmHg 72%
03:00 +7°C° 0 mm 4 mps 768 mmHg 74%
04:00 +7°C° 0 mm 4 mps 768 mmHg 76%
05:00 +7°C° 0 mm 4 mps 768 mmHg 77%
06:00 +6°C° 0 mm 4 mps 769 mmHg 78%
07:00 +7°C° 0 mm 3 mps 769 mmHg 79%
08:00 +9°C° 0 mm 3 mps 769 mmHg 71%
09:00 +11°C° 0 mm 3 mps 770 mmHg 63%
10:00 +13°C° 0 mm 3 mps 770 mmHg 55%
11:00 +14°C° 0 mm 3 mps 769 mmHg 51%
12:00 +17°C° 0 mm 3 mps 769 mmHg 46%
13:00 +18°C° 0 mm 3 mps 768 mmHg 42%
14:00 +17°C° 0 mm 4 mps 768 mmHg 47%
15:00 +15°C° 0 mm 4 mps 768 mmHg 52%
16:00 +15°C° 0 mm 4 mps 768 mmHg 57%
17:00 +14°C° 0 mm 4 mps 769 mmHg 63%
18:00 +12°C° 0 mm 4 mps 769 mmHg 70%
19:00 +11°C° 0 mm 4 mps 770 mmHg 76%
20:00 +11°C° 0 mm 4 mps 770 mmHg 77%
21:00 +10°C° 0 mm 4 mps 770 mmHg 79%
22:00 +10°C° 0 mm 4 mps 771 mmHg 80%
23:00 +8°C° 0 mm 4 mps 771 mmHg 81%

7 July, Tuesday

Time Temperature Precipitation Wind Pressure Humidity
00:00 +8°C° 0 mm 4 mps 770 mmHg 82%
01:00 +7°C° 0 mm 4 mps 770 mmHg 83%
02:00 +7°C° 0 mm 4 mps 770 mmHg 84%
03:00 +7°C° 0 mm 4 mps 770 mmHg 84%
04:00 +7°C° 0 mm 4 mps 770 mmHg 85%
05:00 +6°C° 0 mm 4 mps 770 mmHg 86%
06:00 +6°C° 0 mm 4 mps 771 mmHg 86%
07:00 +6°C° 0 mm 4 mps 771 mmHg 86%
08:00 +8°C° 0 mm 4 mps 771 mmHg 76%
09:00 +11°C° 0 mm 3 mps 771 mmHg 66%
10:00 +13°C° 0 mm 3 mps 771 mmHg 56%
11:00 +14°C° 0 mm 3 mps 771 mmHg 51%
12:00 +17°C° 0 mm 3 mps 770 mmHg 47%
13:00 +18°C° 0 mm 3 mps 770 mmHg 42%
14:00 +17°C° 0 mm 4 mps 770 mmHg 46%
15:00 +17°C° 0 mm 4 mps 770 mmHg 51%
16:00 +15°C° 0 mm 4 mps 770 mmHg 56%
17:00 +14°C° 0 mm 4 mps 770 mmHg 63%
18:00 +13°C° 0 mm 4 mps 770 mmHg 71%
19:00 +11°C° 0 mm 4 mps 771 mmHg 79%
20:00 +11°C° 0.6 mm 4 mps 771 mmHg 81%
21:00 +11°C° 0.6 mm 4 mps 771 mmHg 83%
22:00 +10°C° 0.6 mm 4 mps 771 mmHg 86%
23:00 +11°C° 0.5 mm 4 mps 771 mmHg 87%

8 July, Wednesday

Time Temperature Precipitation Wind Pressure Humidity
00:00 +11°C° 0.5 mm 4 mps 771 mmHg 88%
01:00 +11°C° 0.5 mm 4 mps 771 mmHg 89%
02:00 +11°C° 0.2 mm 4 mps 771 mmHg 88%
03:00 +11°C° 0.2 mm 4 mps 771 mmHg 87%
04:00 +12°C° 0.2 mm 4 mps 771 mmHg 86%
05:00 +12°C° 0 mm 4 mps 771 mmHg 86%
06:00 +12°C° 0 mm 3 mps 771 mmHg 85%
07:00 +12°C° 0 mm 3 mps 771 mmHg 84%
08:00 +12°C° 0 mm 3 mps 771 mmHg 80%
09:00 +13°C° 0 mm 3 mps 772 mmHg 76%
10:00 +14°C° 0 mm 2 mps 772 mmHg 72%
11:00 +15°C° 0 mm 2 mps 772 mmHg 67%
12:00 +16°C° 0 mm 2 mps 771 mmHg 62%
13:00 +17°C° 0 mm 2 mps 771 mmHg 57%
14:00 +17°C° 0 mm 2 mps 771 mmHg 59%
15:00 +16°C° 0 mm 2 mps 771 mmHg 60%
16:00 +16°C° 0 mm 2 mps 770 mmHg 62%
17:00 +15°C° 0 mm 2 mps 771 mmHg 67%
18:00 +13°C° 0 mm 2 mps 771 mmHg 73%
19:00 +12°C° 0 mm 2 mps 771 mmHg 78%
20:00 +12°C° 0 mm 1 mps 771 mmHg 79%
21:00 +12°C° 0 mm 1 mps 772 mmHg 80%
22:00 +11°C° 0 mm 1 mps 772 mmHg 82%
23:00 +11°C° 0 mm 1 mps 772 mmHg 82%

9 July, Thursday

Time Temperature Precipitation Wind Pressure Humidity
00:00 +11°C° 0 mm 1 mps 772 mmHg 82%
01:00 +11°C° 0 mm 1 mps 771 mmHg 82%
02:00 +11°C° 0 mm 1 mps 771 mmHg 83%
03:00 +11°C° 0 mm 1 mps 771 mmHg 84%
04:00 +10°C° 0 mm 1 mps 771 mmHg 85%
05:00 +10°C° 0 mm 1 mps 771 mmHg 86%
06:00 +9°C° 0 mm 1 mps 771 mmHg 87%
07:00 +9°C° 0 mm 1 mps 772 mmHg 88%
08:00 +10°C° 0 mm 2 mps 772 mmHg 80%
09:00 +13°C° 0 mm 2 mps 772 mmHg 72%
10:00 +15°C° 0 mm 2 mps 772 mmHg 64%
11:00 +16°C° 0 mm 2 mps 771 mmHg 60%
12:00 +18°C° 0 mm 1 mps 770 mmHg 56%
13:00 +19°C° 0 mm 1 mps 770 mmHg 52%
14:00 +18°C° 0 mm 2 mps 769 mmHg 55%
15:00 +17°C° 0 mm 3 mps 769 mmHg 58%
16:00 +17°C° 0 mm 3 mps 769 mmHg 61%
17:00 +16°C° 0 mm 3 mps 769 mmHg 67%
18:00 +14°C° 0 mm 4 mps 769 mmHg 74%
19:00 +13°C° 0 mm 4 mps 770 mmHg 81%
20:00 +12°C° 0.1 mm 3 mps 770 mmHg 83%
21:00 +12°C° 0.1 mm 3 mps 770 mmHg 86%
22:00 +11°C° 0.1 mm 3 mps 770 mmHg 88%
23:00 +11°C° 0.1 mm 3 mps 770 mmHg 89%
Show more